Weather History for Troy, AL

Change the Weather History Date:

Tuesday, April 22, 2014

  Actual Average Record
Temperature  
Mean Temperature 66 °F 65 °F  
Max Temperature 78 °F 78 °F 87 °F (2011)
Min Temperature 53 °F 51 °F 43 °F (2009)
Degree Days  
Heating Degree Days 0 3  
Month to date heating degree days 82 98  
Since 1 July heating degree days 2319 2299  
Cooling Degree Days 1 2  
Month to date cooling degree days 24 35  
Year to date cooling degree days 36 54  
Growing Degree Days 15 (Base 50)    
Moisture  
Dew Point 57 °F    
Average Humidity 76    
Maximum Humidity 97    
Minimum Humidity 54    
Precipitation  
Precipitation 0.09 in 0.11 in 1.32 in (2006)
Month to date precipitation 8.89 3.30  
Year to date precipitation 23.64 18.46  
Snow  
Snow 0.00 in - - ()
Month to date snowfall 0.0  
Since 1 July snowfall 0.3  
Snow Depth 0.00 in    
Sea Level Pressure  
Sea Level Pressure 29.93 in    
Wind  
Wind Speed 3 mph (WSW)    
Max Wind Speed 14 mph    
Max Gust Speed 18 mph    
Visibility 4 miles    
Events Fog , Rain    
T = Trace of Precipitation, MM = Missing Value Source: NWS Daily Summary

Daily Weather History Graph

Daily Weather History Graph

Search for Another Location

Airport:

Trip Planner

Search our weather history database for the weather conditions in past years. The results will help you decide how hot, cold, wet, or windy it might be!

Date:

Astronomy

Apr. 22, 2014 Rise Set
Actual Time 6:07 AM CDT 7:18 PM CDT
Civil Twilight 5:42 AM CDT 7:43 PM CDT
Nautical Twilight 5:11 AM CDT 8:13 PM CDT
Astronomical Twilight 4:40 AM CDT 8:45 PM CDT
Moon 1:30 AM CDT (4/22) 12:43 PM CDT (4/22)
Length of Visible Light 14h 01m
Length of Day
13h 10m
Last Quarter, 46% of the Moon is Illuminated
Apr 22
Last Quarter
Apr 29
New
May 6
First Quarter
May 14
Full
May 21
Last Quarter

Hourly Weather History & Observations

Time (CDT) Temp. Dew Point Humidity Pressure Visibility Wind Dir Wind Speed Gust Speed Precip Events Conditions
12:53 AM 54.0 °F 52.0 °F 93% 29.98 in 10.0 mi Calm Calm - N/A   Clear
1:53 AM 55.0 °F 52.0 °F 89% 29.96 in 10.0 mi Calm Calm - N/A   Partly Cloudy
2:53 AM 54.0 °F 51.1 °F 90% 29.95 in 9.0 mi Calm Calm - N/A   Clear
3:53 AM 53.1 °F 51.1 °F 93% 29.94 in 8.0 mi Calm Calm - N/A   Clear
4:53 AM 55.0 °F 52.0 °F 89% 29.94 in 7.0 mi Calm Calm - N/A   Clear
5:13 AM 54.0 °F 52.0 °F 93% 29.95 in 6.0 mi SW 3.5 mph - N/A   Scattered Clouds
5:22 AM 53.1 °F 51.1 °F 93% 29.95 in 2.5 mi SSW 4.6 mph - N/A   Mostly Cloudy
5:24 AM 54.0 °F 52.0 °F 93% 29.95 in 1.5 mi SSW 3.5 mph - N/A   Mostly Cloudy
5:26 AM 54.0 °F 52.0 °F 93% 29.95 in 1.0 mi Calm Calm - N/A   Mist
5:33 AM 55.0 °F 52.0 °F 89% 29.95 in 0.8 mi Calm Calm - N/A   Mist
5:36 AM 54.0 °F 52.0 °F 93% 29.96 in 1.2 mi Calm Calm - N/A   Overcast
5:41 AM 54.0 °F 53.1 °F 97% 29.96 in 0.8 mi Calm Calm - N/A   Mist
5:49 AM 53.6 °F 51.8 °F 94% 29.96 in 0.2 mi Calm Calm - N/A Fog Fog
5:53 AM 54.0 °F 52.0 °F 93% 29.95 in 0.2 mi Calm Calm - N/A Fog Fog
6:53 AM 55.0 °F 54.0 °F 96% 29.96 in 0.2 mi Calm Calm - N/A Fog Fog
7:17 AM 55.9 °F 55.0 °F 97% 29.97 in 1.0 mi Calm Calm - N/A   Mist
7:26 AM 57.0 °F 55.9 °F 96% 29.97 in 1.5 mi SSW 3.5 mph - N/A   Overcast
7:29 AM 57.9 °F 55.9 °F 93% 29.97 in 2.0 mi SSW 3.5 mph - N/A   Overcast
7:42 AM 59.0 °F 57.0 °F 93% 29.97 in 4.0 mi SSW 4.6 mph - N/A   Mostly Cloudy
7:53 AM 60.1 °F 57.9 °F 93% 29.96 in 5.0 mi Variable 3.5 mph - N/A   Scattered Clouds
8:53 AM 66.9 °F 59.0 °F 76% 29.97 in 10.0 mi WSW 6.9 mph - N/A   Clear
9:53 AM 72.0 °F 59.0 °F 64% 29.97 in 10.0 mi West 10.4 mph - N/A   Clear
10:53 AM 73.0 °F 59.0 °F 61% 29.96 in 10.0 mi West 5.8 mph - N/A   Mostly Cloudy
11:53 AM 77.0 °F 59.0 °F 54% 29.93 in 10.0 mi WSW 11.5 mph 18.4 mph N/A   Scattered Clouds
12:53 PM 75.9 °F 57.9 °F 54% 29.91 in 10.0 mi Variable 3.5 mph - N/A   Overcast
1:53 PM 75.0 °F 59.0 °F 57% 29.90 in 10.0 mi NW 5.8 mph - N/A   Overcast
2:53 PM 75.9 °F 60.1 °F 58% 29.88 in 10.0 mi WNW 4.6 mph - N/A   Overcast
3:53 PM 75.0 °F 60.1 °F 60% 29.87 in 10.0 mi WNW 10.4 mph - 0.00 in   Mostly Cloudy
4:53 PM 73.0 °F 60.1 °F 64% 29.86 in 10.0 mi WNW 6.9 mph - N/A   Overcast
5:43 PM 68.0 °F 64.0 °F 87% 29.88 in 1.8 mi NW 8.1 mph - 0.07 in Rain Heavy Rain
5:53 PM 66.9 °F 63.0 °F 87% 29.87 in 3.0 mi North 3.5 mph - 0.09 in Rain Light Rain
6:53 PM 66.9 °F 64.0 °F 90% 29.87 in 7.0 mi Calm Calm - 0.00 in   Overcast
7:53 PM 66.0 °F 64.0 °F 93% 29.88 in 4.0 mi Calm Calm - N/A   Overcast
8:36 PM 66.0 °F 64.0 °F 93% 29.90 in 1.8 mi Calm Calm - 0.00 in   Scattered Clouds
8:38 PM 66.0 °F 64.0 °F 93% 29.89 in 1.2 mi Calm Calm - 0.00 in   Scattered Clouds
8:40 PM 66.0 °F 64.0 °F 93% 29.89 in 0.8 mi Calm Calm - 0.00 in   Scattered Clouds
8:48 PM 64.4 °F 62.6 °F 94% 29.90 in 0.5 mi Calm Calm - 0.00 in Fog Fog
8:53 PM 64.0 °F 62.1 °F 93% 29.88 in 0.2 mi Calm Calm - 0.00 in Fog Fog
9:15 PM 64.0 °F 62.1 °F 93% 29.90 in 0.2 mi Calm Calm - N/A Fog Fog
9:42 PM 63.0 °F 61.0 °F 93% 29.91 in 0.2 mi Calm Calm - N/A Fog Fog
9:53 PM 63.0 °F 61.0 °F 93% 29.90 in 0.2 mi Calm Calm - N/A Fog Fog
10:20 PM 62.1 °F 60.1 °F 93% 29.91 in 0.2 mi Calm Calm - N/A Fog Fog
10:53 PM 61.0 °F 59.0 °F 93% 29.90 in 0.2 mi Calm Calm - N/A Fog Fog
11:53 PM 60.1 °F 57.9 °F 93% 29.90 in 0.5 mi Calm Calm - N/A Fog Fog